User: anonymous   Login
Location: Prairie State College
(41.5244°N, 87.6382°W)
Time: 08:09:19
(UTC-05:00)
Language:

MSX - Orbit

View from above orbital plane
View from above orbital plane
View from above satellite
View from above satellite

Ground track
Ground track

The orbit data is extracted from the following two-line orbital elements,

1 23851U 96024A   15104.84332650 0.00000100  00000-0  70494-4 0    04
2 23851  98.7308 141.7247 0008394  13.1709 346.8290 13.98014047    06
Epoch (UTC): 14 April 2015 20:14:23
Eccentricity: 0.0008394
inclination: 98.7308°
perigee height: 894 km
apogee height: 907 km
right ascension of ascending node: 141.7247°
argument of perigee: 13.1709°
revolutions per day: 13.98014047
mean anomaly at epoch: 346.8290°
orbit number at epoch: 0

The dashed part of the orbit path shows where the satellite is in the earth's shadow,  

DLR